Weather History for K0F2 - September, 2013

Change the Weather History Date:

Sunday, September 22, 2013

  Actual Average (KSPS) Record (KSPS)
Temperature  
Mean Temperature 66 °F 73 °F  
Max Temperature 80 °F 86 °F 101 °F (1926)
Min Temperature 51 °F 61 °F 45 °F (1999)
Degree Days  
Heating Degree Days 0 1  
Month to date heating degree days 4  
Since 1 July heating degree days 4  
Cooling Degree Days 0 9  
Month to date cooling degree days 275  
Year to date cooling degree days 2220  
Growing Degree Days 16 (Base 50)    
Moisture  
Dew Point 48 °F    
Average Humidity 56    
Maximum Humidity 100    
Minimum Humidity 24    
Precipitation  
Precipitation 0.00 in 0.09 in 3.42 in (1902)
Month to date precipitation 2.13  
Year to date precipitation 21.86  
Sea Level Pressure  
Sea Level Pressure 29.89 in    
Wind  
Wind Speed 1 mph (ESE)    
Max Wind Speed 8 mph    
Max Gust Speed -    
Visibility 10 miles    
Events      
T = Trace of Precipitation, MM = Missing Value Source: NWS Daily Summary

Daily Weather History Graph

Daily Weather History Graph

Search for Another Location

Airport or City:

Trip Planner

Search our weather history database for the weather conditions in past years. The results will help you decide how hot, cold, wet, or windy it might be!

Date:

Astronomy

Sep. 22, 2013 Rise Set
Actual Time 7:19 AM CDT 7:27 PM CDT
Civil Twilight 6:54 AM CDT 7:52 PM CDT
Nautical Twilight 6:25 AM CDT 8:21 PM CDT
Astronomical Twilight 5:56 AM CDT 8:50 PM CDT
Moon 9:30 PM CDT (9/22) 10:29 AM CDT (9/22)
Length of Visible Light 12h 57m
Length of Day
12h 08m
Waning Gibbous, 88% of the Moon is Illuminated
Sep 22
Waning Gibbous
Sep 26
Last Quarter
Oct 4
New
Oct 11
First Quarter
Oct 18
Full

Hourly Weather History & Observations

Time (CDT) Temp. Dew Point Humidity Pressure Visibility Wind Dir Wind Speed Gust Speed Precip Events Conditions
12:15 AM 59.0 °F 44.6 °F 59% 29.93 in 7.0 mi Calm Calm - N/A   Clear
12:35 AM 57.2 °F 48.2 °F 72% 29.92 in 10.0 mi Calm Calm - N/A   Clear
12:55 AM 57.2 °F 46.4 °F 67% 29.92 in 10.0 mi Calm Calm - N/A   Clear
1:15 AM 59.0 °F 46.4 °F 63% 29.92 in 10.0 mi Calm Calm - N/A   Clear
1:35 AM 55.4 °F 48.2 °F 77% 29.92 in 10.0 mi Calm Calm - N/A   Clear
1:55 AM 55.4 °F 50.0 °F 82% 29.92 in 10.0 mi Calm Calm - N/A   Clear
2:15 AM 55.4 °F 50.0 °F 82% 29.93 in 10.0 mi Calm Calm - N/A   Clear
2:35 AM 57.2 °F 46.4 °F 67% 29.93 in 10.0 mi Calm Calm - N/A   Clear
2:55 AM 59.0 °F 46.4 °F 63% 29.93 in 10.0 mi Calm Calm - N/A   Clear
3:15 AM 60.8 °F 44.6 °F 55% 29.92 in 10.0 mi Calm Calm - N/A   Clear
3:35 AM 59.0 °F 46.4 °F 63% 29.92 in 10.0 mi Calm Calm - N/A   Clear
3:55 AM 59.0 °F 46.4 °F 63% 29.91 in 10.0 mi Calm Calm - N/A   Clear
4:15 AM 57.2 °F 48.2 °F 72% 29.92 in 10.0 mi Calm Calm - N/A   Clear
4:35 AM 57.2 °F 48.2 °F 72% 29.91 in 10.0 mi Calm Calm - N/A   Clear
4:55 AM 55.4 °F 50.0 °F 82% 29.91 in 10.0 mi NE 3.5 mph - N/A   Clear
5:15 AM 55.4 °F 48.2 °F 77% 29.91 in 10.0 mi Calm Calm - N/A   Clear
5:35 AM 55.4 °F 50.0 °F 82% 29.91 in 10.0 mi Calm Calm - N/A   Clear
5:55 AM 53.6 °F 50.0 °F 88% 29.91 in 10.0 mi Calm Calm - N/A   Clear
6:15 AM 53.6 °F 51.8 °F 94% 29.91 in 10.0 mi Calm Calm - N/A   Clear
6:35 AM 53.6 °F 51.8 °F 94% 29.91 in 10.0 mi Calm Calm - N/A   Clear
6:55 AM 53.6 °F 51.8 °F 94% 29.92 in 10.0 mi Calm Calm - N/A   Clear
7:15 AM 53.6 °F 51.8 °F 94% 29.92 in 10.0 mi Calm Calm - N/A   Clear
7:35 AM 51.8 °F 51.8 °F 100% 29.93 in 10.0 mi Calm Calm - N/A   Clear
7:55 AM 55.4 °F 50.0 °F 82% 29.93 in 10.0 mi Calm Calm - N/A   Clear
8:15 AM 57.2 °F 51.8 °F 82% 29.93 in 10.0 mi Calm Calm - N/A   Clear
8:35 AM 60.8 °F 51.8 °F 72% 29.94 in 10.0 mi Calm Calm - N/A   Clear
8:55 AM 62.6 °F 51.8 °F 68% 29.95 in 10.0 mi Calm Calm - N/A   Clear
9:15 AM 64.4 °F 51.8 °F 64% 29.95 in 10.0 mi East 3.5 mph - N/A   Clear
9:35 AM 68.0 °F 51.8 °F 56% 29.96 in 10.0 mi East 3.5 mph - N/A   Clear
9:55 AM 69.8 °F 51.8 °F 53% 29.96 in 10.0 mi ESE 4.6 mph - N/A   Clear
10:15 AM 69.8 °F 51.8 °F 53% 29.97 in 10.0 mi SE 5.8 mph - N/A   Clear
10:35 AM 71.6 °F 51.8 °F 50% 29.97 in 10.0 mi SE 5.8 mph - N/A   Clear
10:55 AM 73.4 °F 50.0 °F 44% 29.96 in 10.0 mi SE 8.1 mph - N/A   Clear
11:15 AM 75.2 °F 50.0 °F 41% 29.96 in 10.0 mi ESE 3.5 mph - N/A   Clear
11:35 AM 77.0 °F 50.0 °F 39% 29.96 in 10.0 mi SSE 6.9 mph - N/A   Clear
11:55 AM 77.0 °F 44.6 °F 32% 29.95 in 10.0 mi Calm Calm - N/A   Clear
12:15 PM 77.0 °F 44.6 °F 32% 29.94 in 10.0 mi ESE 5.8 mph - N/A   Clear
12:35 PM 77.0 °F 42.8 °F 29% 29.93 in 10.0 mi ESE 3.5 mph - N/A   Clear
12:55 PM 78.8 °F 42.8 °F 28% 29.93 in 10.0 mi East 4.6 mph - N/A   Clear
1:15 PM 78.8 °F 42.8 °F 28% 29.92 in 10.0 mi ESE 4.6 mph - N/A   Clear
1:35 PM 78.8 °F 42.8 °F 28% 29.91 in 10.0 mi SSE 6.9 mph - N/A   Clear
1:55 PM 80.6 °F 42.8 °F 26% 29.90 in 10.0 mi ESE 6.9 mph - N/A   Clear
2:15 PM 80.6 °F 42.8 °F 26% 29.89 in 10.0 mi SE 4.6 mph - N/A   Clear
2:35 PM 80.6 °F 42.8 °F 26% 29.88 in 10.0 mi SE 3.5 mph - N/A   Clear
2:55 PM 80.6 °F 41.0 °F 24% 29.87 in 10.0 mi SE 5.8 mph - N/A   Clear
3:15 PM 80.6 °F 41.0 °F 24% 29.87 in 10.0 mi SSW 5.8 mph - N/A   Clear
3:35 PM 80.6 °F 42.8 °F 26% 29.86 in 10.0 mi ESE 4.6 mph - N/A   Clear
3:55 PM 80.6 °F 42.8 °F 26% 29.85 in 10.0 mi SE 4.6 mph - N/A   Clear
4:15 PM 80.6 °F 44.6 °F 28% 29.84 in 10.0 mi Calm Calm - N/A   Clear
4:35 PM 80.6 °F 42.8 °F 26% 29.84 in 10.0 mi South 3.5 mph - N/A   Clear
4:55 PM 80.6 °F 42.8 °F 26% 29.83 in 10.0 mi East 3.5 mph - N/A   Clear
5:15 PM 80.6 °F 42.8 °F 26% 29.83 in 10.0 mi SE 6.9 mph - N/A   Clear
5:35 PM 80.6 °F 42.8 °F 26% 29.83 in 10.0 mi SSE 6.9 mph - N/A   Clear
5:55 PM 80.6 °F 42.8 °F 26% 29.82 in 10.0 mi SE 4.6 mph - N/A   Clear
6:15 PM 78.8 °F 44.6 °F 30% 29.82 in 10.0 mi ESE 4.6 mph - N/A   Clear
6:35 PM 78.8 °F 44.6 °F 30% 29.82 in 10.0 mi ESE 3.5 mph - N/A   Clear
6:55 PM 77.0 °F 44.6 °F 32% 29.82 in 10.0 mi ESE 4.6 mph - N/A   Clear
7:15 PM 73.4 °F 48.2 °F 41% 29.82 in 10.0 mi ESE 3.5 mph - N/A   Clear
7:35 PM 71.6 °F 50.0 °F 46% 29.83 in 10.0 mi Calm Calm - N/A   Clear
7:55 PM 69.8 °F 51.8 °F 53% 29.83 in 10.0 mi Calm Calm - N/A   Clear
8:15 PM 68.0 °F 51.8 °F 56% 29.83 in 10.0 mi Calm Calm - N/A   Clear
8:35 PM 64.4 °F 51.8 °F 64% 29.83 in 10.0 mi Calm Calm - N/A   Clear
8:55 PM 64.4 °F 51.8 °F 64% 29.84 in 10.0 mi Calm Calm - N/A   Clear
9:15 PM 64.4 °F 51.8 °F 64% 29.84 in 10.0 mi ESE 3.5 mph - N/A   Clear
9:35 PM 64.4 °F 50.0 °F 59% 29.84 in 10.0 mi ESE 3.5 mph - N/A   Clear
9:55 PM 62.6 °F 51.8 °F 68% 29.85 in 10.0 mi Calm Calm - N/A   Clear
10:15 PM 62.6 °F 51.8 °F 68% 29.85 in 10.0 mi Calm Calm - N/A   Clear
10:35 PM 60.8 °F 51.8 °F 72% 29.85 in 10.0 mi Calm Calm - N/A   Clear
10:55 PM 60.8 °F 51.8 °F 72% 29.85 in 10.0 mi Calm Calm - N/A   Clear
11:15 PM 60.8 °F 51.8 °F 72% 29.86 in 10.0 mi Calm Calm - N/A   Clear
11:35 PM 59.0 °F 53.6 °F 82% 29.86 in 10.0 mi Calm Calm - N/A   Clear
11:55 PM 60.8 °F 51.8 °F 72% 29.86 in 10.0 mi Calm Calm - N/A   Clear